This demonstration page uses our WeatherBlox Daily Observations layout. Learn more.

40.92945, -100.16068

Hourly Observations for June 27, 2015

Temp ( °F °C ) Dew Point ( °F °C ) Humidity (%) Winds ( mph kmh ) Pressure ( in mb ) Visibility ( mi km ) Precip ( " mm )
12:15 am 00:15 Clear 61 15.9 58 14.4 91 91 Calm 30.12 1020 10 16.0934 N/A
12:35 am 00:35 Clear 60 15.7 58 14.5 93 93 N 3 6 30.12 1020 10 16.0934 N/A
12:55 am 00:55 Clear 60 15.6 58 14.4 93 93 Calm 30.12 1020 10 16.0934 N/A
1:15 am 01:15 Clear 60 15.8 58 14.5 92 92 WNW 3 6 30.12 1020 10 16.0934 N/A
1:35 am 01:35 Clear 59 15.1 57 14.1 94 94 W 5 7 30.12 1020 10 16.0934 N/A
1:55 am 01:55 Clear 59 15.2 57 14 93 93 Calm 30.12 1020 10 16.0934 N/A
2:15 am 02:15 Clear 59 15 57 14 94 94 Calm 30.12 1020 10 16.0934 N/A
2:35 am 02:35 Clear 58 14.5 57 13.7 95 95 WNW 3 6 30.12 1020 10 16.0934 N/A
2:55 am 02:55 Clear 58 14.4 56 13.4 94 94 WNW 3 6 30.15 1021 10 16.0934 N/A
3:15 am 03:15 Clear 57 13.9 56 13.1 95 95 NW 5 7 30.15 1021 10 16.0934 N/A
3:35 am 03:35 Clear 57 14 56 13.3 96 96 W 5 7 30.15 1021 10 16.0934 N/A
3:55 am 03:55 Clear 58 14.3 56 13.6 96 96 WNW 5 7 30.15 1021 10 16.0934 N/A
4:15 am 04:15 Clear 55 13 54 12.3 96 96 NW 3 6 30.15 1021 7 11.26538 N/A
4:35 am 04:35 Clear 56 13.5 55 12.7 95 95 NW 3 6 30.15 1021 10 16.0934 N/A
4:55 am 04:55 Clear 55 12.6 54 12 96 96 Calm 30.15 1021 7 11.26538 N/A
5:15 am 05:15 Clear 54 12.4 53 11.8 96 96 Calm 30.15 1021 7 11.26538 N/A
5:35 am 05:35 Clear 55 12.8 54 12.1 96 96 NW 3 6 30.15 1021 10 16.0934 N/A
5:55 am 05:55 Clear 54 12.4 53 11.7 96 96 W 5 7 30.15 1021 10 16.0934 N/A
6:15 am 06:15 Sunny 55 12.8 54 12.2 96 96 W 6 9 30.15 1021 7 11.26538 N/A
6:35 am 06:35 Sunny 55 12.9 54 12.2 96 96 WNW 5 7 30.15 1021 7 11.26538 N/A
6:55 am 06:55 Sunny 56 13.5 55 13 97 97 WNW 3 6 30.15 1021 7 11.26538 N/A
7:15 am 07:15 Sunny 59 14.8 58 14.2 96 96 WNW 3 6 30.15 1021 7 11.26538 N/A
7:35 am 07:35 Sunny 60 15.7 59 15.1 96 96 NW 3 6 30.15 1021 7 11.26538 N/A
7:55 am 07:55 Sunny 63 17.1 61 16.2 94 94 WNW 3 6 30.12 1020 7 11.26538 N/A
8:15 am 08:15 Sunny 65 18.4 62 16.9 91 91 WNW 6 9 30.09 1019 10 16.0934 N/A
8:35 am 08:35 Sunny 67 19.5 63 17.1 86 86 WNW 3 6 30.09 1019 10 16.0934 N/A
8:55 am 08:55 Sunny 69 20.7 64 17.5 82 82 Calm 30.09 1019 10 16.0934 N/A
9:15 am 09:15 Sunny 72 22.1 65 18.1 78 78 Calm 30.06 1018 10 16.0934 N/A
9:35 am 09:35 Sunny 74 23.2 64 18 73 73 W 3 6 30.06 1018 10 16.0934 N/A
9:55 am 09:55 Sunny 75 24 63 17.4 67 67 WSW 3 6 30.06 1018 10 16.0934 N/A
10:15 am 10:15 Sunny 77 24.8 64 17.5 64 64 W 5 7 30.03 1017 10 16.0934 N/A
10:35 am 10:35 Sunny 78 25.4 63 17.1 60 60 W 5 7 30.03 1017 10 16.0934 N/A
10:55 am 10:55 Sunny 79 26.3 61 15.9 53 53 W 5 7 30.03 1017 10 16.0934 N/A
11:15 am 11:15 Sunny 80 26.6 60 15.6 51 51 W 6 9 30.03 1017 10 16.0934 N/A
11:35 am 11:35 Sunny 80 26.7 61 16 52 52 W 7 11 30.03 1017 10 16.0934 N/A
11:55 am 11:55 Sunny 81 27.1 59 15.1 48 48 S 5 7 30.03 1017 10 16.0934 N/A
12:15 pm 12:15 Sunny 81 27.4 59 15 47 47 S 3 6 30.03 1017 10 16.0934 N/A
12:35 pm 12:35 Sunny 82 27.6 60 15.4 47 47 WSW 5 7 30.03 1017 10 16.0934 N/A
12:55 pm 12:55 Partly Cloudy 81 27 58 14.7 47 47 WNW 5 7 30 1016 10 16.0934 N/A
1:15 pm 13:15 Sunny 82 27.9 56 13.6 41 41 WNW 3 6 30 1016 10 16.0934 N/A
1:35 pm 13:35 Sunny 82 28 56 13.4 41 41 N 3 6 30 1016 10 16.0934 N/A
1:55 pm 13:55 Sunny 83 28.3 58 14.3 42 42 NNW 6 9 30 1016 10 16.0934 N/A
2:15 pm 14:15 Sunny 82 28 57 13.7 41 41 ENE 7 11 29.94 1014 10 16.0934 N/A
2:35 pm 14:35 Sunny 83 28.6 56 13.5 39 39 NNW 3 6 29.94 1014 10 16.0934 N/A
2:55 pm 14:55 Sunny 84 29 56 13.6 39 39 WSW 5 7 29.94 1014 10 16.0934 N/A
3:15 pm 15:15 Sunny 84 29 54 12.2 35 35 W 3 6 29.94 1014 10 16.0934 N/A
3:35 pm 15:35 Sunny 85 29.4 55 12.5 35 35 WNW 5 7 29.94 1014 10 16.0934 N/A
3:55 pm 15:55 Sunny 83 28.6 57 13.8 40 40 NNW 3 6 29.94 1014 10 16.0934 N/A
4:15 pm 16:15 Sunny 85 29.3 54 12 34 34 SSW 3 6 29.94 1014 10 16.0934 N/A
4:35 pm 16:35 Sunny 86 29.8 57 13.8 38 38 Calm 29.91 1013 10 16.0934 N/A
4:55 pm 16:55 Sunny 85 29.7 53 11.6 33 33 Calm 29.91 1013 10 16.0934 N/A
5:15 pm 17:15 Sunny 86 30.1 56 13.5 36 36 WNW 5 7 29.91 1013 10 16.0934 N/A
5:35 pm 17:35 Sunny 86 30 53 11.9 33 33 Calm 29.91 1013 10 16.0934 N/A
5:55 pm 17:55 Sunny 86 29.8 55 12.8 35 35 Calm 29.88 1012 10 16.0934 N/A
6:15 pm 18:15 Sunny 85 29.7 55 12.5 35 35 Calm 29.88 1012 10 16.0934 N/A
6:35 pm 18:35 Sunny 85 29.6 55 13 36 36 N 3 6 29.88 1012 10 16.0934 N/A
6:55 pm 18:55 Sunny 85 29.3 56 13.2 37 37 Calm 29.88 1012 10 16.0934 N/A
7:15 pm 19:15 Sunny 85 29.3 55 12.6 36 36 Calm 29.88 1012 10 16.0934 N/A
7:35 pm 19:35 Sunny 85 29.6 54 12 34 34 Calm 29.88 1012 10 16.0934 N/A
7:55 pm 19:55 Sunny 84 28.7 59 15.1 44 44 Calm 29.88 1012 10 16.0934 N/A
8:15 pm 20:15 Sunny 84 28.8 55 12.8 37 37 Calm 29.88 1012 10 16.0934 N/A
8:35 pm 20:35 Sunny 83 28.1 60 15.3 46 46 S 3 6 29.88 1012 10 16.0934 N/A
8:55 pm 20:55 Sunny 79 26.2 62 16.9 57 57 Calm 29.91 1013 10 16.0934 N/A
9:15 pm 21:15 Clear 77 25.1 62 16.8 60 60 S 3 6 29.91 1013 10 16.0934 N/A
9:35 pm 21:35 Clear 74 23.3 60 15.8 63 63 SSW 6 9 29.94 1014 7 11.26538 N/A
9:55 pm 21:55 Clear 71 21.6 62 16.6 73 73 SSW 5 7 29.94 1014 10 16.0934 N/A
10:15 pm 22:15 Clear 69 20.6 61 16.3 76 76 S 5 7 29.94 1014 10 16.0934 N/A
10:35 pm 22:35 Clear 70 21 62 16.4 75 75 S 5 7 29.94 1014 10 16.0934 N/A
10:55 pm 22:55 Clear 70 21.1 61 16.1 73 73 S 3 6 29.94 1014 10 16.0934 N/A
11:15 pm 23:15 Clear 69 20.8 60 15.7 73 73 S 3 6 29.94 1014 10 16.0934 N/A
11:35 pm 23:35 Clear 68 20 60 15.4 75 75 Calm 29.97 1015 10 16.0934 N/A
11:55 pm 23:55 Clear 68 20.2 60 15.4 74 74 Calm 29.97 1015 10 16.0934 N/A

Powered by AerisWeather